Location: Unspecified
(0.0000°N, 0.0000°E)
Time: 20:17:29
(UTC+00:00)

ARIANE 2 DEB - Pass Details

Date: 12 March 2026
Orbit: 794 x 35760 km, 8.3° (Epoch: 17 April)

Event Time Altitude Azimuth Distance (km) Brightness Sun altitude
Exits shadow 04:22:15 58° 215° (SW) 1,062 ? -26.8°
Maximum altitude 04:22:47 62° 184° (S) 1,071 ? -26.7°
Drops below altitude 10° 04:31:59 10° 104° (ESE) 4,887 ? -24.4°
Sets 04:39:30 0° 101° (E) 8,134 ? -22.5°
